Theta_e
315 315 315 315 316 316 316 316 316 315 315 315 314 314 314 314 313 309 307 308 308 303 304 304 302 300 298 298 295 297 298 295 292 289 289 290 290 295 293 293 293 293 293 292 295 295 293 303 308 306 310 318 317 316
315 315 315 315 315 315 316 316 316 315 315 315 314 314 313 313 313 308 305 308 309 305 304 305 308 309 307 307 301 300 299 295 293 291 292 291 289 293 293 289 299 293 299 297 298 297 301 302 301 304 310 310 312 317
315 314 315 315 315 315 315 315 316 316 315 315 314 313 313 313 312 310 306 306 307 303 304 304 304 307 307 307 308 300 302 302 299 302 297 295 289 294 290 292 294 298 303 298 301 298 298 301 302 304 305 305 310 314
314 314 314 315 315 315 315 315 315 315 315 314 314 312 312 312 312 310 306 306 306 303 299 301 308 307 309 306 306 306 306 306 306 304 298 295 291 297 294 295 295 298 302 300 298 300 300 300 301 302 304 305 306 308
314 314 314 314 314 315 315 315 315 315 315 314 313 313 312 311 310 310 307 307 307 303 297 300 306 307 307 307 306 305 307 305 303 299 297 296 298 297 297 298 296 300 297 300 297 301 301 300 301 303 303 304 307 308
313 313 314 314 314 315 315 315 315 315 315 314 313 312 311 310 309 307 305 307 308 307 302 297 305 306 306 306 305 304 304 303 302 300 298 299 301 298 295 295 297 298 300 302 302 302 302 302 301 302 302 303 306 308
313 313 314 314 314 314 315 314 314 314 313 313 311 310 310 309 307 304 304 306 307 309 303 299 300 305 304 304 304 305 303 304 302 301 299 299 300 300 297 292 296 296 298 298 299 302 299 299 299 300 302 303 304 306
312 313 313 314 314 314 314 313 313 313 313 312 310 309 309 309 308 305 310 308 308 304 304 298 299 301 304 301 300 302 302 303 303 301 301 299 299 298 295 297 299 298 299 298 298 298 298 299 300 299 301 302 301 302
312 312 313 313 313 313 313 313 313 313 312 310 310 310 308 306 303 306 311 310 307 303 298 299 297 297 303 300 299 300 301 298 302 301 301 298 298 295 297 298 299 299 299 298 298 298 298 298 298 299 300 300 300 300
312 312 312 312 313 313 312 313 313 312 311 309 308 307 305 306 313 312 305 302 302 302 303 298 302 299 301 298 297 297 298 297 296 298 300 298 297 299 301 302 303 302 301 301 297 295 297 297 298 298 299 300 300 300
312 312 312 312 312 312 312 313 312 310 309 310 307 306 309 313 307 303 300 299 299 296 299 300 301 301 302 297 297 298 296 296 292 296 296 295 297 300 304 303 304 304 303 301 300 300 299 299 298 298 299 300 300 301
312 312 312 311 312 312 312 312 312 311 312 309 308 309 308 306 303 298 297 300 298 298 301 303 304 303 302 302 298 296 295 296 291 299 296 293 299 302 303 302 303 303 302 301 302 301 300 299 300 299 300 300 300 301
312 311 311 311 311 312 312 312 311 310 310 309 306 303 302 303 293 294 294 298 298 301 304 305 303 303 301 301 299 296 293 294 299 295 294 297 301 302 304 303 302 303 303 302 302 303 302 300 300 300 301 301 301 301
311 310 310 311 311 311 311 311 311 310 308 304 302 291 298 296 298 299 301 303 306 305 305 306 305 301 303 299 300 295 299 298 293 291 292 300 303 304 304 305 302 301 302 302 303 303 303 303 303 302 302 303 302 301
310 310 310 310 311 311 311 311 311 310 307 303 302 293 299 304 305 307 310 309 310 311 307 306 304 302 302 300 301 299 295 293 295 294 299 303 305 305 304 304 304 304 304 303 304 304 304 304 304 304 305 303 303 302
310 310 310 311 311 311 310 310 310 309 305 304 302 301 305 303 303 306 309 309 314 310 307 306 302 300 298 300 297 295 293 292 297 300 303 303 304 306 305 306 306 307 306 306 306 306 306 306 305 305 306 305 304 303
310 311 312 311 311 309 310 310 308 304 303 303 301 305 304 303 303 305 307 309 315 310 303 302 298 297 302 298 296 299 297 301 303 304 304 305 306 306 307 307 308 308 307 307 308 308 307 308 307 305 304 305 306 306
311 313 311 309 310 309 310 309 307 304 301 303 301 304 305 306 305 306 309 312 313 309 305 302 308 301 296 295 298 302 303 304 306 305 305 305 307 307 307 308 308 308 308 308 308 308 307 306 304 304 306 307 306 306
311 311 310 310 311 310 306 305 306 301 303 304 305 307 306 307 309 311 311 314 316 315 309 306 302 302 303 307 307 309 308 306 306 304 305 306 307 306 306 306 306 307 306 306 305 304 305 306 306 306 305 305 304 305
309 310 310 311 312 309 306 306 307 303 302 307 307 307 309 309 311 310 310 311 312 310 306 303 305 310 309 311 311 310 309 308 305 303 304 304 305 306 306 305 304 306 305 306 305 299 305 305 306 305 305 305 305 305
308 310 310 310 309 308 306 306 305 306 307 305 308 308 308 310 309 308 310 314 310 308 308 313 310 315 314 313 312 311 310 307 306 307 306 305 306 306 306 306 307 305 304 305 306 306 300 305 307 307 306 305 306 306
309 311 308 309 306 306 304 308 306 308 306 306 306 305 306 307 309 309 312 309 309 313 314 315 314 314 315 313 313 310 310 309 308 305 302 303 306 306 306 307 306 306 306 307 307 307 307 308 306 305 305 304 300 304
310 310 308 306 303 299 298 311 304 306 303 304 307 304 306 309 311 314 308 310 313 315 315 315 314 314 313 309 308 307 308 309 308 308 308 309 309 310 309 309 309 308 308 309 309 308 308 300 300 302 303 301 302 302
310 308 304 303 302 297 306 304 307 306 305 303 303 302 305 309 311 307 304 307 312 312 314 314 312 307 308 308 308 309 309 310 309 309 309 309 309 310 310 310 310 310 311 311 310 309 308 305 299 301 302 301 301 300
299 299 300 292 305 302 301 302 302 302 300 303 302 304 306 311 307 305 306 310 311 311 313 314 313 311 309 308 308 308 308 308 308 308 309 309 310 305 305 307 308 308 309 308 308 307 307 304 302 303 302 301 301 301
293 302 296 302 302 301 303 300 301 301 304 302 305 310 311 307 303 303 307 310 312 313 313 314 314 311 308 308 308 308 309 309 309 307 310 309 309 308 308 308 307 309 306 306 306 305 305 303 302 302 302 301 295 299
295 300 304 307 305 306 304 304 305 304 303 302 305 306 305 300 302 307 310 311 314 317 318 317 316 313 313 311 310 310 311 310 310 310 310 310 311 312 310 309 308 307 306 304 305 305 303 303 303 302 302 303 302 301
302 303 299 304 303 305 303 304 303 302 305 309 309 303 302 302 303 312 315 319 318 319 319 318 317 316 314 313 313 313 312 311 310 308 304 304 305 306 307 308 307 293 304 305 304 304 304 304 303 302 301 300 301 302
300 305 304 300 302 303 303 303 304 307 311 312 306 304 306 313 316 314 317 318 320 318 318 317 317 317 316 316 315 315 315 310 308 306 307 309 308 306 303 304 304 304 304 303 292 298 302 302 302 302 301 301 302 302
301 306 303 302 301 300 306 309 308 311 314 314 316 314 314 314 316 320 319 318 317 317 319 320 320 318 316 316 318 315 314 311 312 313 311 310 309 307 304 304 304 303 304 304 303 302 292 299 297 302 301 302 303 303
306 303 302 303 303 307 311 312 312 311 313 313 316 312 311 314 317 320 320 320 320 319 318 318 319 318 318 317 317 317 316 312 310 311 310 308 307 306 304 304 304 303 303 303 303 303 302 301 302 302 303 303 304 302
304 303 303 303 306 311 312 310 309 309 311 309 310 313 313 313 310 317 324 321 318 318 314 316 319 320 322 320 319 319 304 323 317 312 307 308 308 305 304 303 303 303 303 303 303 303 303 302 302 303 303 303 303 303
306 307 306 306 307 307 310 309 308 307 309 309 310 311 311 310 309 317 326 323 322 321 320 320 319 317 317 318 318 317 307 319 310 298 297 297 297 299 303 303 303 303 303 303 304 303 303 303 303 303 303 303 302 302
Wind_Speed
11 11 10 9 9 8 9 9 9 10 9 10 11 10 10 10 8 3 1 1 2 2 5 6 5 5 3 2 3 0 1 3 2 3 2 1 4 1 3 2 4 4 7 4 3 5 6 10 2 5 4 7 9 8
11 11 10 9 9 9 8 9 9 9 9 9 9 9 8 8 8 2 1 1 1 3 4 2 5 6 7 7 3 4 2 6 3 3 3 1 2 3 1 2 2 3 4 4 3 3 5 8 9 6 5 10 7 9
11 11 11 11 10 10 8 9 9 9 8 8 7 8 8 6 6 3 2 1 2 2 4 3 5 3 3 8 6 3 3 5 4 4 1 1 4 3 0 1 4 1 2 4 5 5 7 6 8 9 10 13 11 12
12 11 12 12 11 10 9 10 9 8 8 7 7 7 8 6 4 2 2 1 1 0 3 1 2 3 1 6 5 3 4 6 2 1 2 2 3 4 1 1 2 3 5 5 6 8 5 7 7 8 9 9 11 12
13 11 12 12 11 10 10 11 9 8 8 7 7 7 7 6 4 3 2 3 2 3 3 4 8 0 4 5 5 4 7 6 4 3 3 2 1 2 1 3 1 3 3 1 3 7 3 5 5 8 6 8 9 9
13 11 12 12 11 11 11 12 10 9 8 7 6 6 6 4 2 2 2 3 3 2 2 3 3 2 1 2 4 4 4 4 3 3 3 2 3 4 2 0 4 3 5 4 4 6 6 6 7 5 5 6 6 7
13 12 12 12 12 12 12 12 10 9 8 7 6 5 5 2 1 2 3 2 3 2 2 3 3 1 2 0 2 2 2 1 3 1 2 1 2 3 1 1 9 5 8 5 3 6 5 5 3 2 3 3 4 6
12 12 12 12 12 12 12 11 10 9 8 6 5 5 3 2 3 1 1 7 3 1 2 3 2 2 1 1 1 2 1 1 1 3 2 1 3 1 2 5 8 8 6 5 6 5 5 5 4 4 5 5 6 8
12 12 12 11 11 11 11 9 8 8 6 5 5 3 2 1 1 1 8 9 1 1 2 2 2 1 1 1 1 2 1 2 1 2 1 3 1 2 3 11 11 10 7 8 5 4 5 7 7 7 8 8 8 10
12 11 11 11 10 10 9 8 7 5 3 4 1 1 1 1 4 9 1 2 1 0 1 3 1 2 2 1 1 1 1 1 2 2 2 2 2 3 4 7 8 11 8 10 7 5 5 8 9 10 9 8 9 9
10 9 9 9 9 9 7 6 3 1 2 1 0 0 1 2 2 2 1 2 2 2 3 3 4 2 2 2 1 1 1 0 2 2 3 1 3 4 7 9 8 9 8 6 3 6 6 6 6 6 7 8 8 9
10 8 8 8 7 6 6 4 5 2 0 1 1 1 0 1 1 2 2 1 3 2 3 2 0 3 2 1 2 2 0 1 2 0 2 2 3 5 11 12 11 11 10 8 6 6 5 3 2 4 4 5 6 6
9 8 7 7 6 5 4 5 8 6 4 1 1 1 1 2 0 3 2 2 2 3 2 1 2 2 2 3 2 1 2 1 1 2 2 4 1 6 10 11 11 11 10 9 7 5 5 3 3 3 2 2 4 5
9 8 6 6 6 6 4 6 8 6 1 1 2 2 2 3 4 3 2 1 2 2 1 1 1 1 0 3 2 3 2 2 2 3 4 3 7 9 11 10 11 13 12 11 9 8 7 6 5 4 4 4 5 5
10 8 4 7 10 8 6 8 10 1 2 2 2 3 5 3 2 3 3 2 3 2 1 2 1 2 0 2 1 0 3 4 4 3 2 2 4 10 13 12 12 12 11 10 9 8 7 6 6 7 7 7 8 9
8 4 4 5 1 5 11 11 2 1 1 2 3 3 3 2 3 3 3 2 3 3 1 0 2 3 1 1 2 4 2 4 2 3 1 1 5 9 11 11 10 9 9 9 8 9 8 8 10 11 9 10 11 12
8 2 3 3 10 13 10 2 2 3 3 4 4 3 2 3 4 2 3 2 4 4 2 1 3 2 4 3 4 4 4 2 2 3 2 4 8 10 10 10 9 9 8 8 8 8 9 9 9 9 12 13 12 12
1 2 9 16 9 5 1 1 2 3 5 4 4 2 3 4 3 3 3 3 4 3 3 2 1 4 3 3 3 3 3 3 3 2 0 4 6 8 8 10 9 9 9 8 7 7 7 8 9 9 11 8 7 8
4 6 14 11 2 2 3 2 1 3 5 2 3 4 3 4 5 5 3 4 4 2 2 2 3 4 5 4 4 4 3 3 1 3 3 4 6 8 8 6 6 7 7 7 7 6 6 8 8 7 6 5 6 6
10 9 10 5 1 1 2 2 2 3 3 1 3 3 3 3 1 1 3 5 6 3 3 4 6 4 4 3 3 4 1 2 4 5 5 4 5 7 8 7 6 6 6 5 6 6 6 7 7 7 7 7 7 8
3 4 6 2 1 0 1 2 3 2 2 3 1 3 3 2 3 3 3 5 4 3 5 6 3 4 4 4 3 2 2 4 5 2 5 6 6 5 5 5 5 5 5 6 6 6 6 7 6 5 5 5 5 5
3 7 3 2 2 2 2 2 2 1 2 2 3 2 3 3 2 3 4 4 4 4 5 3 2 2 5 4 2 3 1 6 4 3 5 7 7 5 5 6 6 6 6 7 6 7 5 4 4 3 3 3 3 3
8 3 2 2 2 3 3 2 2 3 3 2 2 3 3 2 1 4 3 4 4 3 2 3 2 1 1 3 3 3 4 6 4 4 3 3 3 4 4 5 6 7 7 8 7 7 6 3 5 5 4 3 3 3
2 3 3 4 4 2 2 3 2 2 2 2 2 3 2 1 4 2 4 3 1 1 3 4 4 4 3 2 2 2 3 3 3 3 3 3 3 4 5 5 5 7 7 7 5 5 5 6 6 7 5 5 4 4
2 1 3 2 2 2 3 2 3 3 3 3 3 3 2 3 3 4 3 1 1 2 3 4 4 3 2 3 2 3 4 4 3 3 3 4 2 2 4 5 6 5 4 6 6 6 6 5 6 6 6 6 6 7
2 3 4 5 3 4 3 2 4 5 4 3 4 2 1 0 3 3 1 2 1 1 3 4 5 5 4 3 3 4 4 5 3 3 2 4 4 5 7 6 4 2 2 4 4 4 5 5 5 5 6 8 8 8
0 2 2 1 1 1 3 3 2 2 4 3 2 2 2 2 2 1 0 1 1 1 1 3 5 5 3 4 3 3 2 4 4 0 2 2 3 3 4 3 3 3 2 2 3 2 2 3 2 4 5 5 5 5
2 1 3 2 3 2 3 3 3 4 3 2 2 3 2 4 1 1 3 2 3 2 3 3 5 5 4 4 4 4 4 3 3 2 1 2 2 1 2 1 1 2 0 2 3 2 1 2 1 1 3 5 5 5
4 3 3 3 3 3 4 5 4 3 2 2 1 1 3 1 1 3 3 3 2 3 3 4 5 5 5 6 6 5 5 6 7 6 6 3 2 2 4 3 3 3 3 4 5 5 3 2 2 3 4 5 6 7
4 5 4 4 5 6 6 7 3 2 2 2 2 1 2 3 4 5 5 6 6 5 4 3 3 6 6 7 6 7 6 7 7 6 4 3 1 3 5 6 5 4 4 4 3 3 2 2 2 4 5 5 5 6
1 4 4 4 4 5 5 4 2 1 3 4 4 5 7 4 4 6 7 7 6 5 5 6 7 7 8 8 7 7 6 6 9 9 5 5 4 4 5 6 5 5 4 3 2 1 3 4 4 5 6 8 10 10
5 8 4 4 3 2 2 3 3 4 4 4 4 5 3 3 4 3 2 3 4 6 6 6 6 6 3 5 4 4 4 5 8 8 12 7 5 6 6 6 5 4 4 3 0 3 4 4 6 7 8 11 12 11
4 4 4 4 3 3 3 2 3 2 3 3 4 7 6 4 4 2 1 1 3 4 3 2 2 3 3 3 1 3 4 2 6 9 10 10 12 10 7 6 5 4 3 1 2 3 4 7 7 8 10 11 10 9
Wind_Direction
282 285 292 299 306 317 315 318 319 315 320 331 338 343 341 345 357 1 54 189 313 264 271 207 189 177 170 197 300 116 38 54 298 234 290 209 258 353 276 327 296 206 169 164 157 211 185 359 210 235 38 104 97 82
272 276 282 290 296 301 307 309 315 314 311 320 335 336 336 338 345 3 250 95 324 227 296 281 257 264 246 245 182 198 270 146 224 263 234 305 271 274 56 301 232 221 359 125 338 53 47 36 61 20 49 76 46 95
260 267 274 276 278 288 294 297 303 305 311 318 323 330 324 328 339 6 300 309 218 266 259 252 218 160 204 216 209 250 163 148 206 216 263 251 259 269 147 165 290 84 12 96 176 90 65 49 55 36 47 68 62 62
255 258 267 275 278 279 281 286 295 303 306 316 310 320 307 309 306 310 272 152 257 356 280 273 345 246 321 171 180 229 125 154 171 200 209 238 256 207 198 291 277 334 312 119 88 110 132 59 44 26 48 52 66 63
251 254 261 269 275 279 277 276 282 284 288 305 304 300 299 301 305 274 240 228 270 288 306 302 303 231 240 201 189 143 162 165 178 183 222 250 249 232 157 246 100 0 27 287 106 107 49 79 43 14 35 40 52 66
246 251 259 266 269 273 270 270 275 273 278 291 300 300 296 299 318 240 203 171 204 233 274 295 348 281 82 157 160 174 169 195 218 222 180 234 266 251 245 66 93 85 65 16 97 96 88 119 67 26 28 28 36 60
242 249 256 264 271 271 270 267 268 270 274 284 290 292 297 286 174 259 354 68 157 220 247 277 282 115 326 92 113 165 164 218 272 221 211 234 169 252 251 212 152 176 90 66 68 145 129 82 106 49 70 70 90 71
241 247 256 266 270 275 276 278 272 269 265 279 289 297 299 263 258 290 2 199 177 327 274 266 269 274 357 150 176 346 279 262 15 326 220 317 162 275 264 118 150 124 109 82 70 79 94 117 131 86 81 57 79 62
240 247 256 264 273 279 282 281 277 272 279 294 301 303 137 168 149 94 114 122 196 261 261 246 257 210 138 84 246 165 353 254 356 282 337 298 330 229 144 167 171 165 174 158 143 120 117 96 90 76 68 53 53 46
239 245 255 267 274 278 283 278 278 275 286 299 154 199 179 152 130 145 170 176 161 307 238 251 244 257 216 173 113 262 27 0 262 63 283 251 280 291 217 187 170 170 159 159 157 131 86 68 58 53 48 43 39 32
237 247 258 271 278 281 277 275 244 148 152 204 267 28 54 173 159 189 178 222 135 234 201 239 233 275 164 223 145 291 110 70 271 103 290 270 258 206 162 168 167 166 165 162 118 118 101 85 60 42 34 27 23 18
230 241 260 272 277 283 281 239 169 154 121 88 78 180 248 204 160 251 225 161 209 256 184 231 241 223 178 192 185 187 189 201 276 63 271 262 245 167 165 167 168 169 168 164 164 146 130 114 74 39 13 22 24 13
215 231 250 260 266 272 265 199 184 112 122 143 152 157 110 136 70 237 215 170 221 184 243 208 222 220 160 203 97 175 230 256 186 230 264 250 143 180 176 164 162 169 172 177 173 172 168 174 196 241 320 13 7 359
204 213 231 249 253 247 229 190 164 146 160 165 175 324 213 191 238 212 247 246 185 185 192 347 308 246 237 202 156 225 108 201 243 240 233 231 205 182 176 170 163 173 183 190 196 195 200 207 220 237 265 301 310 312
192 197 225 268 247 232 199 166 150 154 171 189 169 217 223 233 232 237 260 258 197 161 136 177 182 233 45 266 201 215 197 242 235 240 235 242 178 169 169 174 179 177 185 199 203 210 220 230 244 264 264 266 262 260
172 173 219 208 212 157 149 128 135 151 169 207 221 230 216 253 237 227 231 244 176 143 114 352 178 198 141 210 256 227 227 231 239 229 289 189 172 172 173 175 180 182 192 202 207 220 229 228 235 247 255 247 245 246
157 198 168 117 141 137 139 113 144 189 215 220 235 221 236 280 251 228 196 228 161 166 187 183 226 168 127 226 238 203 228 268 282 294 264 212 179 169 170 174 178 189 196 207 218 221 230 237 239 238 243 245 241 244
111 124 139 129 133 139 112 185 203 193 240 226 236 207 192 229 233 209 203 183 168 180 143 254 213 202 223 224 224 223 257 286 280 296 225 151 152 158 169 174 184 198 203 206 212 220 221 217 220 233 242 254 253 254
142 144 148 149 139 147 149 182 217 249 242 251 252 238 245 242 226 239 209 188 190 128 146 175 234 232 230 221 253 277 250 250 297 115 121 137 148 161 166 175 186 190 200 201 205 223 233 231 244 253 255 255 259 270
77 142 157 140 335 144 184 183 199 251 259 326 247 251 251 256 286 179 166 178 173 178 187 215 223 217 222 237 233 276 223 179 159 150 145 146 152 163 174 172 186 195 211 225 237 236 249 256 251 252 251 253 258 266
106 130 136 177 31 90 270 215 220 235 280 258 266 271 274 242 236 180 171 167 192 211 228 228 226 234 224 255 252 242 213 188 195 200 167 163 171 184 163 180 188 194 215 227 239 242 221 253 277 276 264 252 242 255
121 146 117 180 211 160 257 224 254 301 260 280 273 240 265 252 209 175 147 201 232 220 211 212 231 256 217 229 224 202 115 169 156 116 105 124 157 183 199 196 194 217 224 235 237 246 249 247 244 226 219 228 233 245
145 157 131 147 175 184 258 178 235 209 257 259 266 262 233 231 107 147 229 224 251 219 207 203 201 196 157 118 118 106 152 162 162 162 153 174 179 204 211 204 212 228 238 239 228 239 242 212 204 207 189 216 232 251
162 172 166 179 188 225 186 209 211 246 268 252 239 257 226 148 144 224 255 241 229 138 184 170 166 141 126 127 157 150 150 167 154 166 186 194 217 221 232 246 235 239 246 264 240 236 225 214 191 190 194 215 232 261
114 206 128 243 198 218 221 206 206 218 247 225 241 246 182 186 209 223 231 300 275 211 178 176 200 204 155 136 155 176 170 201 204 209 168 209 250 256 249 239 248 251 237 234 234 233 227 205 204 203 201 226 248 266
160 183 176 192 177 214 203 241 204 212 231 235 238 231 126 273 262 273 30 334 306 231 189 195 187 178 181 191 182 194 195 187 196 245 227 218 238 264 289 295 300 5 190 238 257 239 204 192 204 211 233 243 243 260
220 191 187 207 289 241 251 253 253 268 263 240 201 210 130 231 263 65 17 261 266 314 263 218 201 203 194 181 208 235 191 179 194 19 29 295 276 253 249 274 302 16 344 241 220 205 177 164 238 254 264 264 262 258
238 244 224 143 215 237 270 268 220 220 236 243 240 213 234 186 256 223 197 235 245 265 315 222 208 205 205 197 190 182 177 188 178 199 204 213 200 147 159 200 307 30 179 118 132 136 118 109 72 347 282 282 288 283
210 202 202 236 216 227 226 228 245 213 223 219 217 202 291 89 245 234 266 260 271 278 270 199 189 194 206 220 219 211 182 172 168 188 220 238 239 170 158 157 139 112 108 108 65 55 68 29 359 325 304 299 307 304
235 189 213 225 206 223 221 198 222 224 252 276 275 247 236 237 228 238 254 261 260 249 241 238 181 193 209 221 221 197 201 197 210 212 209 219 290 100 155 155 144 127 114 111 119 128 149 240 248 275 301 308 312 315
157 175 228 234 250 241 225 202 186 234 253 245 245 255 279 301 295 269 252 251 244 230 227 230 220 210 221 225 228 228 215 196 218 219 183 131 116 140 168 155 138 131 133 128 114 24 339 322 328 330 330 331 328 322
190 204 208 227 248 224 132 188 207 215 217 206 229 208 209 223 257 268 202 185 202 215 222 241 256 257 249 238 237 222 168 174 191 203 185 179 135 143 158 151 138 137 145 135 331 321 331 331 326 324 324 323 325 325
216 203 215 261 256 227 181 185 227 250 224 224 226 221 220 215 250 277 40 269 299 307 299 289 282 319 330 310 268 193 190 134 140 162 163 136 128 138 144 144 134 143 149 145 325 317 304 316 317 320 322 326 331 339